Location: Houston
(29.7630°N, 95.3630°W)
Time: 06:10:34
(UTC-05:00)

Saudisat 1A - Visible Passes

Search period start: 26 July 2014 00:00
Search period end: 05 August 2014 00:00
Orbit: 599 x 609 km, 64.6° (Epoch: 25 July)

Date Brightness Start Highest point End Pass type
(mag) Time Alt. Az. Time Alt. Az. Time Alt. Az.
01 Aug 10.6 06:00:50 10° SSE 06:03:49 18° ESE 06:06:48 10° ENE visible
02 Aug 9.5 06:11:59 10° S 06:16:03 38° ESE 06:20:08 10° NE visible
04 Aug 10.7 04:59:50 10° SE 05:01:39 12° ESE 05:03:29 10° E visible
